Terminal Aerodrome Forecast
Issued by NWS Billings, MT

Home | Current Version | Previous Version | Text Only | Print | Product List | Glossary Off
Versions: 1 2 3 4 5 6 7 8 9 10 11 12 13 14 15 16 17 18 19 20 21 22 23 24 25 26 27 28 29 30 31 32 33 34 35 36 37 38

622
FTUS45 KBYZ 131738
TAFMLS
TAF
KMLS 131738Z 1318/1418 15015KT P6SM BKN110
     FM132000 26015G30KT P6SM -SHRA BKN030 OVC050
     FM132200 29018G25KT P6SM VCSH OVC050
     FM140300 29011KT P6SM OVC050=

USA.gov is the U.S. government's official web portal to all federal, state and local government web resources and services.